Weather History for Rockwall, TX

Change the Weather History Date:

Saturday, March 16, 2013

  Actual Average (KDFW) Record (KDFW)
Temperature  
Mean Temperature 68 °F 58 °F  
Max Temperature 80 °F 68 °F 88 °F (1908)
Min Temperature 56 °F 47 °F 29 °F (1947)
Degree Days  
Heating Degree Days 0 8  
Month to date heating degree days 162  
Since 1 July heating degree days 2094  
Cooling Degree Days 3 1  
Month to date cooling degree days 14  
Year to date cooling degree days 21  
Growing Degree Days 18 (Base 50)    
Moisture  
Dew Point 54 °F    
Average Humidity 62    
Maximum Humidity 92    
Minimum Humidity 43    
Precipitation  
Precipitation 0.00 in 0.12 in 1.33 in (1998)
Month to date precipitation 1.82  
Year to date precipitation 6.61  
Snow  
Snow 0.00 in 0.00 in 0.00 in ()
Month to date snowfall 0.1  
Since 1 July snowfall 1.1  
Snow Depth -    
Sea Level Pressure  
Sea Level Pressure 29.80 in    
Wind  
Wind Speed 19 mph (South)    
Max Wind Speed 30 mph    
Max Gust Speed 37 mph    
Visibility 10 miles    
Events      
T = Trace of Precipitation, MM = Missing Value Source: NWS Daily Summary

Daily Weather History Graph

Daily Weather History Graph

Search for Another Location

Airport:

Trip Planner

Search our weather history database for the weather conditions in past years. The results will help you decide how hot, cold, wet, or windy it might be!

Date:

Astronomy

Mar. 16, 2013 Rise Set
Actual Time 7:34 AM CDT 7:34 PM CDT
Civil Twilight 7:09 AM CDT 7:59 PM CDT
Nautical Twilight 6:41 AM CDT 8:27 PM CDT
Astronomical Twilight 6:12 AM CDT 8:56 PM CDT
Moon 10:20 AM CDT (3/16) No Moon Set
Length of Visible Light 12h 49m
Length of Day
12h 00m
Waxing Crescent, 23% of the Moon is Illuminated
Mar 16
Waxing Crescent
Mar 19
First Quarter
Mar 27
Full
Apr 2
Last Quarter
Apr 10
New

Hourly Weather History & Observations

Time (CDT) Temp. Heat Index Dew Point Humidity Pressure Visibility Wind Dir Wind Speed Gust Speed Precip Events Conditions
12:15 AM 64.9 °F - 47.7 °F 54% 29.89 in 10.0 mi SSW 20.7 mph 26.5 mph N/A   Clear
12:35 AM 64.4 °F - 48.6 °F 56% 29.89 in 10.0 mi SSW 19.6 mph 29.9 mph N/A   Clear
12:55 AM 63.7 °F - 49.1 °F 59% 29.88 in 10.0 mi SSW 18.4 mph 27.6 mph N/A   Clear
1:15 AM 63.3 °F - 49.5 °F 61% 29.88 in 10.0 mi South 19.6 mph 23.0 mph N/A   Clear
1:35 AM 63.7 °F - 50.0 °F 61% 29.88 in 10.0 mi SSW 19.6 mph 29.9 mph N/A   Clear
1:55 AM 63.5 °F - 50.0 °F 61% 29.88 in 10.0 mi SSW 18.4 mph 32.2 mph N/A   Clear
2:15 AM 63.0 °F - 50.0 °F 63% 29.87 in 10.0 mi SSW 18.4 mph 32.2 mph N/A   Clear
2:35 AM 62.6 °F - 50.0 °F 63% 29.87 in 10.0 mi SSW 18.4 mph 29.9 mph N/A   Clear
2:55 AM 61.7 °F - 50.0 °F 65% 29.87 in 10.0 mi SSW 18.4 mph 21.9 mph N/A   Clear
3:15 AM 61.2 °F - 50.4 °F 68% 29.87 in 10.0 mi SSW 18.4 mph 25.3 mph N/A   Clear
3:35 AM 60.8 °F - 50.5 °F 69% 29.87 in 10.0 mi SSW 19.6 mph 25.3 mph N/A   Clear
3:55 AM 60.1 °F - 50.9 °F 72% 29.86 in 10.0 mi SSW 17.3 mph 24.2 mph N/A   Clear
4:15 AM 59.9 °F - 51.3 °F 73% 29.85 in 10.0 mi SSW 18.4 mph 23.0 mph N/A   Clear
4:35 AM 59.0 °F - 51.8 °F 77% 29.85 in 10.0 mi SSW 17.3 mph 24.2 mph N/A   Clear
4:55 AM 58.8 °F - 52.3 °F 79% 29.85 in 10.0 mi South 18.4 mph 21.9 mph N/A   Clear
5:35 AM 58.1 °F - 53.4 °F 84% 29.85 in 10.0 mi SSW 17.3 mph 24.2 mph N/A   Clear
5:55 AM 57.7 °F - 53.6 °F 86% 29.85 in 10.0 mi SSW 17.3 mph 20.7 mph N/A   Clear
6:15 AM 57.4 °F - 54.0 °F 88% 29.85 in 10.0 mi South 16.1 mph 20.7 mph N/A   Clear
6:35 AM 57.2 °F - 54.0 °F 89% 29.85 in 10.0 mi SSW 13.8 mph - N/A   Clear
6:55 AM 57.0 °F - 54.1 °F 90% 29.85 in 10.0 mi South 13.8 mph 21.9 mph N/A   Clear
7:15 AM 56.7 °F - 54.1 °F 91% 29.85 in 10.0 mi South 15.0 mph - N/A   Clear
7:35 AM 56.5 °F - 54.3 °F 92% 29.85 in 10.0 mi South 17.3 mph 21.9 mph N/A   Clear
7:55 AM 56.5 °F - 54.3 °F 92% 29.85 in 10.0 mi South 15.0 mph - N/A   Clear
8:15 AM 57.2 °F - 54.5 °F 91% 29.85 in 10.0 mi South 16.1 mph 23.0 mph N/A   Clear
8:35 AM 58.3 °F - 54.7 °F 88% 29.85 in 10.0 mi South 16.1 mph 21.9 mph N/A   Clear
8:55 AM 59.4 °F - 54.9 °F 85% 29.85 in 10.0 mi South 18.4 mph 23.0 mph N/A   Clear
9:15 AM 60.6 °F - 55.0 °F 82% 29.86 in 10.0 mi SSW 17.3 mph 24.2 mph N/A   Clear
9:35 AM 62.4 °F - 55.4 °F 78% 29.86 in 10.0 mi SSW 17.3 mph 27.6 mph N/A   Clear
9:55 AM 63.9 °F - 55.4 °F 74% 29.86 in 10.0 mi SSW 17.3 mph 28.8 mph N/A   Clear
10:15 AM 65.1 °F - 55.4 °F 71% 29.86 in 10.0 mi SSW 18.4 mph 35.7 mph N/A   Clear
10:35 AM 67.1 °F - 55.8 °F 67% 29.85 in 10.0 mi SSW 19.6 mph 29.9 mph N/A   Clear
10:55 AM 68.5 °F - 55.8 °F 64% 29.85 in 10.0 mi South 18.4 mph 24.2 mph N/A   Clear
11:15 AM 69.8 °F - 55.6 °F 61% 29.85 in 10.0 mi SSW 17.3 mph 31.1 mph N/A   Clear
11:35 AM 70.7 °F - 55.8 °F 59% 29.84 in 10.0 mi South 20.7 mph 31.1 mph N/A   Clear
11:55 AM 72.0 °F - 55.4 °F 56% 29.83 in 10.0 mi SSW 25.3 mph 35.7 mph N/A   Clear
12:15 PM 72.9 °F - 55.4 °F 54% 29.83 in 10.0 mi SSW 24.2 mph 35.7 mph N/A   Clear
12:35 PM 74.3 °F - 56.3 °F 53% 29.82 in 10.0 mi SSW 21.9 mph 28.8 mph N/A   Clear
12:55 PM 74.5 °F - 56.5 °F 53% 29.82 in 10.0 mi South 21.9 mph 32.2 mph N/A   Clear
1:15 PM 75.6 °F - 57.0 °F 52% 29.81 in 10.0 mi South 25.3 mph 32.2 mph N/A   Clear
1:35 PM 75.7 °F - 57.6 °F 53% 29.80 in 10.0 mi SSW 24.2 mph 33.4 mph N/A   Clear
1:55 PM 77.4 °F - 57.6 °F 50% 29.79 in 10.0 mi South 21.9 mph 33.4 mph N/A   Clear
2:15 PM 77.0 °F - 57.9 °F 52% 29.78 in 10.0 mi South 24.2 mph 34.5 mph N/A   Clear
2:35 PM 77.4 °F - 58.1 °F 51% 29.77 in 10.0 mi South 21.9 mph 34.5 mph N/A   Clear
2:55 PM 78.4 °F - 57.7 °F 49% 29.76 in 10.0 mi South 17.3 mph 35.7 mph N/A   Clear
3:15 PM 79.5 °F - 57.2 °F 46% 29.74 in 10.0 mi South 25.3 mph 34.5 mph N/A   Clear
3:35 PM 79.9 °F - 57.4 °F 46% 29.74 in 10.0 mi South 26.5 mph 34.5 mph N/A   Clear
3:55 PM 80.1 °F 80.3 °F 56.1 °F 44% 29.72 in 10.0 mi South 29.9 mph 36.8 mph N/A   Clear
4:15 PM 80.4 °F 80.5 °F 55.9 °F 43% 29.72 in 10.0 mi SSW 26.5 mph 34.5 mph N/A   Clear
4:35 PM 79.7 °F - 57.0 °F 46% 29.72 in 10.0 mi South 21.9 mph 33.4 mph N/A   Clear
4:55 PM 79.7 °F - 56.7 °F 45% 29.71 in 10.0 mi South 20.7 mph 33.4 mph N/A   Clear
5:15 PM 78.8 °F - 55.8 °F 45% 29.71 in 10.0 mi SSW 21.9 mph 34.5 mph N/A   Clear
5:35 PM 78.8 °F - 56.8 °F 47% 29.70 in 10.0 mi South 17.3 mph 25.3 mph N/A   Clear
5:55 PM 79.0 °F - 55.9 °F 45% 29.70 in 10.0 mi South 20.7 mph 33.4 mph N/A   Clear
6:15 PM 78.8 °F - 56.3 °F 46% 29.70 in 10.0 mi SSW 21.9 mph 34.5 mph N/A   Clear
6:35 PM 78.1 °F - 55.6 °F 46% 29.70 in 10.0 mi South 15.0 mph 28.8 mph N/A   Clear
6:55 PM 77.2 °F - 54.9 °F 46% 29.69 in 10.0 mi South 15.0 mph 26.5 mph N/A   Clear
7:15 PM 75.9 °F - 54.3 °F 47% 29.70 in 10.0 mi South 13.8 mph 23.0 mph N/A   Clear
7:35 PM 74.7 °F - 54.0 °F 48% 29.70 in 10.0 mi South 13.8 mph 18.4 mph N/A   Clear
7:55 PM 73.4 °F - 54.0 °F 50% 29.71 in 10.0 mi South 10.4 mph 18.4 mph N/A   Clear
8:15 PM 72.0 °F - 54.5 °F 54% 29.71 in 10.0 mi South 10.4 mph - N/A   Clear
8:35 PM 71.6 °F - 54.1 °F 54% 29.72 in 10.0 mi South 11.5 mph 17.3 mph N/A   Clear
8:55 PM 71.4 °F - 54.3 °F 55% 29.72 in 10.0 mi South 11.5 mph - N/A   Clear
9:15 PM 70.3 °F - 54.5 °F 57% 29.73 in 10.0 mi South 10.4 mph - N/A   Clear
9:35 PM 69.6 °F - 54.5 °F 59% 29.73 in 10.0 mi SSE 10.4 mph 16.1 mph N/A   Clear
9:55 PM 70.0 °F - 54.5 °F 58% 29.73 in 10.0 mi SSE 11.5 mph 18.4 mph N/A   Clear
10:15 PM 69.4 °F - 54.5 °F 59% 29.73 in 10.0 mi SSE 11.5 mph 18.4 mph N/A   Clear
10:35 PM 68.9 °F - 54.1 °F 59% 29.72 in 10.0 mi South 12.7 mph 19.6 mph N/A   Clear
10:55 PM 68.9 °F - 54.3 °F 60% 29.72 in 10.0 mi South 17.3 mph 23.0 mph N/A   Clear
11:15 PM 69.1 °F - 54.9 °F 60% 29.72 in 10.0 mi South 17.3 mph 25.3 mph N/A   Clear
11:35 PM 68.4 °F - 55.6 °F 64% 29.73 in 10.0 mi South 15.0 mph 27.6 mph N/A   Clear
11:55 PM 68.4 °F - 56.7 °F 66% 29.74 in 10.0 mi South 19.6 mph 27.6 mph N/A   Clear